owner,sensor,date,latitude,longitude,vertical_datum,wind_speed,wind_to_direction,wind_speed_of_gust,qcFlag 
LOOP,urn:ioos:station:wmo:lopl1:1,2017-08-01T00:52:00Z,28.8850,-90.0250,10.0,9.3,70.0,10.8,'1111122,1111122,1111122' 
LOOP,urn:ioos:station:wmo:lopl1:1,2017-08-01T01:52:00Z,28.8850,-90.0250,10.0,9.8,90.0,10.8,'1111122,1111122,1111122' 
LOOP,urn:ioos:station:wmo:lopl1:1,2017-08-01T02:52:00Z,28.8850,-90.0250,10.0,9.3,80.0,9.8,'1111122,1111122,1111122' 
LOOP,urn:ioos:station:wmo:lopl1:1,2017-08-01T03:52:00Z,28.8850,-90.0250,10.0,8.8,90.0,10.3,'1111122,1111122,1111122' 
LOOP,urn:ioos:station:wmo:lopl1:1,2017-08-01T04:57:00Z,28.8850,-90.0250,10.0,9.2,93.0,10.1,'11111222,11111222,11111222' 
LOOP,urn:ioos:station:wmo:lopl1:1,2017-08-01T05:07:00Z,28.8850,-90.0250,10.0,8.2,80.0,9.8,'1111122,1111122,1111122' 
LOOP,urn:ioos:station:wmo:lopl1:1,2017-08-01T06:07:00Z,28.8850,-90.0250,10.0,10.3,100.0,11.8,'1111122,1111122,1111122' 
LOOP,urn:ioos:station:wmo:lopl1:1,2017-08-01T07:07:00Z,28.8850,-90.0250,10.0,9.8,100.0,11.3,'1111122,1111122,1111122' 
LOOP,urn:ioos:station:wmo:lopl1:1,2017-08-01T08:07:00Z,28.8850,-90.0250,10.0,7.7,120.0,8.2,'1111122,1111122,1111122' 
LOOP,urn:ioos:station:wmo:lopl1:1,2017-08-01T09:07:00Z,28.8850,-90.0250,10.0,7.7,100.0,9.3,'1111122,1111122,1111122' 
LOOP,urn:ioos:station:wmo:lopl1:1,2017-08-01T10:07:00Z,28.8850,-90.0250,10.0,6.7,110.0,7.7,'1111122,1111122,1111122' 
LOOP,urn:ioos:station:wmo:lopl1:1,2017-08-01T11:07:00Z,28.8850,-90.0250,10.0,6.7,110.0,7.7,'1111122,1111122,1111122' 
LOOP,urn:ioos:station:wmo:lopl1:1,2017-08-01T12:12:00Z,28.8850,-90.0250,10.0,7.2,100.0,8.8,'1111122,1111122,1111122' 
LOOP,urn:ioos:station:wmo:lopl1:1,2017-08-01T13:12:00Z,28.8850,-90.0250,10.0,6.2,90.0,7.2,'1111122,1111122,1111122' 
LOOP,urn:ioos:station:wmo:lopl1:1,2017-08-01T14:12:00Z,28.8850,-90.0250,10.0,5.7,90.0,6.2,'1111122,1111122,1111122' 
LOOP,urn:ioos:station:wmo:lopl1:1,2017-08-01T15:12:00Z,28.8850,-90.0250,10.0,5.7,90.0,6.7,'1111122,1111122,1111122' 
LOOP,urn:ioos:station:wmo:lopl1:1,2017-08-01T16:12:00Z,28.8850,-90.0250,10.0,5.1,90.0,6.2,'1111122,1111122,1111122' 
LOOP,urn:ioos:station:wmo:lopl1:1,2017-08-01T17:12:00Z,28.8850,-90.0250,10.0,4.6,110.0,6.2,'1111122,1111122,1111122' 
LOOP,urn:ioos:station:wmo:lopl1:1,2017-08-01T18:12:00Z,28.8850,-90.0250,10.0,5.1,100.0,6.2,'1111122,1111122,1111122' 
LOOP,urn:ioos:station:wmo:lopl1:1,2017-08-01T19:12:00Z,28.8850,-90.0250,10.0,4.6,70.0,6.2,'1111122,1111122,1111122' 
LOOP,urn:ioos:station:wmo:lopl1:1,2017-08-01T20:12:00Z,28.8850,-90.0250,10.0,3.6,70.0,5.1,'1111122,1111122,1111122' 
LOOP,urn:ioos:station:wmo:lopl1:1,2017-08-01T21:12:00Z,28.8850,-90.0250,10.0,4.1,60.0,5.1,'1111122,1111122,1111122' 
LOOP,urn:ioos:station:wmo:lopl1:1,2017-08-01T22:12:00Z,28.8850,-90.0250,10.0,3.6,60.0,5.7,'1111122,1111122,1111122' 
LOOP,urn:ioos:station:wmo:lopl1:1,2017-08-01T23:12:00Z,28.8850,-90.0250,10.0,3.7,63.0,4.8,'11111222,11111222,11111222' 
LOOP,urn:ioos:station:wmo:lopl1:1,2017-08-02T00:12:00Z,28.8850,-90.0250,10.0,5.3,104.0,6.4,'11111222,11111222,11111222' 
LOOP,urn:ioos:station:wmo:lopl1:1,2017-08-02T01:12:00Z,28.8850,-90.0250,10.0,6.2,100.0,6.7,'1111122,1111122,1111122' 
LOOP,urn:ioos:station:wmo:lopl1:1,2017-08-02T02:12:00Z,28.8850,-90.0250,10.0,6.2,60.0,6.7,'1111122,1111122,1111122' 
LOOP,urn:ioos:station:wmo:lopl1:1,2017-08-02T03:12:00Z,28.8850,-90.0250,10.0,7.2,70.0,8.8,'1111122,1111122,1111122' 
LOOP,urn:ioos:station:wmo:lopl1:1,2017-08-02T04:12:00Z,28.8850,-90.0250,10.0,6.2,80.0,7.2,'1111122,1111122,1111122' 
LOOP,urn:ioos:station:wmo:lopl1:1,2017-08-02T05:12:00Z,28.8850,-90.0250,10.0,6.2,60.0,7.2,'1111122,1111122,1111122' 
LOOP,urn:ioos:station:wmo:lopl1:1,2017-08-02T06:12:00Z,28.8850,-90.0250,10.0,5.1,80.0,6.2,'1111122,1111122,1111122' 
LOOP,urn:ioos:station:wmo:lopl1:1,2017-08-02T07:12:00Z,28.8850,-90.0250,10.0,6.2,80.0,7.7,'1111122,1111122,1111122' 
LOOP,urn:ioos:station:wmo:lopl1:1,2017-08-02T08:12:00Z,28.8850,-90.0250,10.0,6.2,140.0,6.2,'1111122,1111122,1111122' 
LOOP,urn:ioos:station:wmo:lopl1:1,2017-08-02T09:12:00Z,28.8850,-90.0250,10.0,6.7,150.0,7.7,'1111122,1111122,1111122' 
LOOP,urn:ioos:station:wmo:lopl1:1,2017-08-02T10:12:00Z,28.8850,-90.0250,10.0,7.2,140.0,8.2,'1111122,1111122,1111122' 
LOOP,urn:ioos:station:wmo:lopl1:1,2017-08-02T11:12:00Z,28.8850,-90.0250,10.0,5.7,150.0,6.7,'1111122,1111122,1111122' 
LOOP,urn:ioos:station:wmo:lopl1:1,2017-08-02T12:12:00Z,28.8850,-90.0250,10.0,5.1,150.0,5.7,'1111122,1111122,1111122' 
LOOP,urn:ioos:station:wmo:lopl1:1,2017-08-02T13:12:00Z,28.8850,-90.0250,10.0,5.1,150.0,6.2,'1111122,1111122,1111122' 
LOOP,urn:ioos:station:wmo:lopl1:1,2017-08-02T14:17:00Z,28.8850,-90.0250,10.0,4.6,140.0,6.2,'1111122,1111122,1111122' 
LOOP,urn:ioos:station:wmo:lopl1:1,2017-08-02T15:17:00Z,28.8850,-90.0250,10.0,4.1,160.0,5.7,'1111122,1111122,1111122' 
LOOP,urn:ioos:station:wmo:lopl1:1,2017-08-02T16:17:00Z,28.8850,-90.0250,10.0,3.1,30.0,4.1,'1111122,1111122,1111122' 
LOOP,urn:ioos:station:wmo:lopl1:1,2017-08-02T17:17:00Z,28.8850,-90.0250,10.0,4.1,70.0,5.7,'1111122,1111122,1111122' 
LOOP,urn:ioos:station:wmo:lopl1:1,2017-08-02T18:17:00Z,28.8850,-90.0250,10.0,5.7,70.0,6.2,'1111122,1111122,1111122' 
LOOP,urn:ioos:station:wmo:lopl1:1,2017-08-02T19:17:00Z,28.8850,-90.0250,10.0,1.5,60.0,3.6,'1111122,1111122,1111122' 
LOOP,urn:ioos:station:wmo:lopl1:1,2017-08-02T20:17:00Z,28.8850,-90.0250,10.0,4.6,70.0,5.7,'1111122,1111122,1111122' 
LOOP,urn:ioos:station:wmo:lopl1:1,2017-08-02T21:17:00Z,28.8850,-90.0250,10.0,5.2,98.0,5.6,'11111222,11111222,11111222' 
LOOP,urn:ioos:station:wmo:lopl1:1,2017-08-02T22:17:00Z,28.8850,-90.0250,10.0,8.5,114.0,10.2,'11111222,11111222,11111222' 
LOOP,urn:ioos:station:wmo:lopl1:1,2017-08-02T23:17:00Z,28.8850,-90.0250,10.0,9.8,90.0,10.8,'1111122,1111122,1111122' 
LOOP,urn:ioos:station:wmo:lopl1:1,2017-08-03T00:17:00Z,28.8850,-90.0250,10.0,9.3,120.0,10.3,'1111122,1111122,1111122' 
LOOP,urn:ioos:station:wmo:lopl1:1,2017-08-03T01:17:00Z,28.8850,-90.0250,10.0,11.2,132.0,12.1,'11111222,11111222,11111222' 
LOOP,urn:ioos:station:wmo:lopl1:1,2017-08-03T02:17:00Z,28.8850,-90.0250,10.0,8.2,110.0,9.3,'1111122,1111122,1111122' 
LOOP,urn:ioos:station:wmo:lopl1:1,2017-08-03T03:17:00Z,28.8850,-90.0250,10.0,8.1,129.0,8.9,'11111222,11111222,11111222' 
LOOP,urn:ioos:station:wmo:lopl1:1,2017-08-03T04:18:00Z,28.8850,-90.0250,10.0,8.7,150.0,9.5,'11111222,11111222,11111222' 
LOOP,urn:ioos:station:wmo:lopl1:1,2017-08-03T05:18:00Z,28.8850,-90.0250,10.0,6.2,-9999.0,9.8,'1111122,1111122,1111122' 
LOOP,urn:ioos:station:wmo:lopl1:1,2017-08-03T06:18:00Z,28.8850,-90.0250,10.0,5.6,-9999.0,7.6,'11111222,99999999,11111222' 
LOOP,urn:ioos:station:wmo:lopl1:1,2017-08-03T07:18:00Z,28.8850,-90.0250,10.0,8.2,-9999.0,9.3,'1111122,1111122,1111122' 
LOOP,urn:ioos:station:wmo:lopl1:1,2017-08-03T08:18:00Z,28.8850,-90.0250,10.0,9.3,-9999.0,9.3,'1111122,1111122,1111122' 
LOOP,urn:ioos:station:wmo:lopl1:1,2017-08-03T09:18:00Z,28.8850,-90.0250,10.0,7.7,-9999.0,8.8,'1111122,1111122,1111122' 
LOOP,urn:ioos:station:wmo:lopl1:1,2017-08-03T10:18:00Z,28.8850,-90.0250,10.0,8.8,-9999.0,9.3,'1111122,1111122,1111122' 
LOOP,urn:ioos:station:wmo:lopl1:1,2017-08-03T11:18:00Z,28.8850,-90.0250,10.0,9.8,-9999.0,11.3,'1111122,1111122,1111122' 
LOOP,urn:ioos:station:wmo:lopl1:1,2017-08-03T12:18:00Z,28.8850,-90.0250,10.0,9.8,-9999.0,11.8,'1111122,1111122,1111122' 
LOOP,urn:ioos:station:wmo:lopl1:1,2017-08-03T13:18:00Z,28.8850,-90.0250,10.0,5.1,-9999.0,9.3,'1111122,1111122,1111122' 
LOOP,urn:ioos:station:wmo:lopl1:1,2017-08-03T14:23:00Z,28.8850,-90.0250,10.0,8.2,330.0,13.4,'1111122,1111122,1111122' 
LOOP,urn:ioos:station:wmo:lopl1:1,2017-08-03T15:23:00Z,28.8850,-90.0250,10.0,8.2,320.0,11.8,'1111122,1111122,1111122' 
LOOP,urn:ioos:station:wmo:lopl1:1,2017-08-03T16:23:00Z,28.8850,-90.0250,10.0,5.7,340.0,9.3,'1111122,1111122,1111122' 
LOOP,urn:ioos:station:wmo:lopl1:1,2017-08-03T17:23:00Z,28.8850,-90.0250,10.0,2.1,10.0,2.6,'1111122,1111122,1111122' 
LOOP,urn:ioos:station:wmo:lopl1:1,2017-08-03T18:23:00Z,28.8850,-90.0250,10.0,3.3,29.0,4.5,'11111222,11111222,11111222' 
LOOP,urn:ioos:station:wmo:lopl1:1,2017-08-03T19:23:00Z,28.8850,-90.0250,10.0,0.7,9.0,1.4,'11111222,11111222,11111222' 
LOOP,urn:ioos:station:wmo:lopl1:1,2017-08-03T20:23:00Z,28.8850,-90.0250,10.0,3.1,-9999.0,3.6,'1111122,1111122,1111122' 
LOOP,urn:ioos:station:wmo:lopl1:1,2017-08-03T21:23:00Z,28.8850,-90.0250,10.0,4.7,-9999.0,6.1,'11111222,99999999,11111222' 
LOOP,urn:ioos:station:wmo:lopl1:1,2017-08-03T22:23:00Z,28.8850,-90.0250,10.0,4.7,-9999.0,6.5,'11111222,99999999,11111222' 
LOOP,urn:ioos:station:wmo:lopl1:1,2017-08-03T23:23:00Z,28.8850,-90.0250,10.0,6.0,-9999.0,7.6,'11111222,99999999,11111222' 
LOOP,urn:ioos:station:wmo:lopl1:1,2017-08-04T00:23:00Z,28.8850,-90.0250,10.0,5.7,-9999.0,7.1,'11111222,99999999,11111222' 
LOOP,urn:ioos:station:wmo:lopl1:1,2017-08-04T01:23:00Z,28.8850,-90.0250,10.0,6.8,-9999.0,9.6,'11111222,99999999,11111222' 
LOOP,urn:ioos:station:wmo:lopl1:1,2017-08-04T02:23:00Z,28.8850,-90.0250,10.0,6.7,-9999.0,8.8,'1111122,1111122,1111122' 
LOOP,urn:ioos:station:wmo:lopl1:1,2017-08-04T03:23:00Z,28.8850,-90.0250,10.0,6.9,-9999.0,9.2,'11111222,99999999,11111222' 
LOOP,urn:ioos:station:wmo:lopl1:1,2017-08-04T04:23:00Z,28.8850,-90.0250,10.0,7.2,-9999.0,9.5,'11111222,99999999,11111222' 
LOOP,urn:ioos:station:wmo:lopl1:1,2017-08-04T05:23:00Z,28.8850,-90.0250,10.0,7.7,-9999.0,10.3,'1111122,1111122,1111122' 
LOOP,urn:ioos:station:wmo:lopl1:1,2017-08-04T06:23:00Z,28.8850,-90.0250,10.0,7.0,-9999.0,9.3,'11111222,99999999,11111222' 
LOOP,urn:ioos:station:wmo:lopl1:1,2017-08-04T07:23:00Z,28.8850,-90.0250,10.0,9.5,-9999.0,11.2,'11111222,99999999,11111222' 
LOOP,urn:ioos:station:wmo:lopl1:1,2017-08-04T08:23:00Z,28.8850,-90.0250,10.0,10.8,-9999.0,11.3,'1111122,1111122,1111122' 
LOOP,urn:ioos:station:wmo:lopl1:1,2017-08-04T09:23:00Z,28.8850,-90.0250,10.0,10.6,-9999.0,11.5,'11111222,99999999,11111222' 
LOOP,urn:ioos:station:wmo:lopl1:1,2017-08-04T10:23:00Z,28.8850,-90.0250,10.0,10.8,-9999.0,12.4,'1111122,1111122,1111122' 
LOOP,urn:ioos:station:wmo:lopl1:1,2017-08-04T11:23:00Z,28.8850,-90.0250,10.0,10.1,-9999.0,11.1,'11111222,99999999,11111222' 
LOOP,urn:ioos:station:wmo:lopl1:1,2017-08-04T12:23:00Z,28.8850,-90.0250,10.0,6.7,-9999.0,8.8,'1111122,1111122,1111122' 
LOOP,urn:ioos:station:wmo:lopl1:1,2017-08-04T13:23:00Z,28.8850,-90.0250,10.0,9.2,-9999.0,10.0,'11111222,99999999,11111222' 
LOOP,urn:ioos:station:wmo:lopl1:1,2017-08-04T14:23:00Z,28.8850,-90.0250,10.0,8.9,-9999.0,9.3,'11111222,99999999,11111222' 
LOOP,urn:ioos:station:wmo:lopl1:1,2017-08-04T15:23:00Z,28.8850,-90.0250,10.0,5.7,270.0,10.3,'1111122,1111122,1111122' 
LOOP,urn:ioos:station:wmo:lopl1:1,2017-08-04T16:23:00Z,28.8850,-90.0250,10.0,8.7,277.0,12.0,'11111222,11111222,11111222' 
LOOP,urn:ioos:station:wmo:lopl1:1,2017-08-04T17:28:00Z,28.8850,-90.0250,10.0,6.9,286.0,9.2,'11111222,11111222,11111222' 
LOOP,urn:ioos:station:wmo:lopl1:1,2017-08-04T18:28:00Z,28.8850,-90.0250,10.0,6.5,287.0,8.0,'11111222,11111222,11111222' 
LOOP,urn:ioos:station:wmo:lopl1:1,2017-08-04T19:28:00Z,28.8850,-90.0250,10.0,3.6,-9999.0,6.2,'11111222,99999999,11111222' 
LOOP,urn:ioos:station:wmo:lopl1:1,2017-08-04T20:28:00Z,28.8850,-90.0250,10.0,4.1,274.0,5.6,'11111222,11111222,11111222' 
LOOP,urn:ioos:station:wmo:lopl1:1,2017-08-04T21:28:00Z,28.8850,-90.0250,10.0,7.2,-9999.0,9.8,'1111122,1111122,1111122' 
LOOP,urn:ioos:station:wmo:lopl1:1,2017-08-04T22:28:00Z,28.8850,-90.0250,10.0,7.2,-9999.0,9.8,'1111122,1111122,1111122' 
LOOP,urn:ioos:station:wmo:lopl1:1,2017-08-04T23:28:00Z,28.8850,-90.0250,10.0,6.6,-9999.0,8.2,'11111222,99999999,11111222' 
LOOP,urn:ioos:station:wmo:lopl1:1,2017-08-05T00:28:00Z,28.8850,-90.0250,10.0,4.2,-9999.0,5.1,'11111222,99999999,11111222' 
LOOP,urn:ioos:station:wmo:lopl1:1,2017-08-05T01:28:00Z,28.8850,-90.0250,10.0,7.1,-9999.0,8.4,'11111222,99999999,11111222' 
LOOP,urn:ioos:station:wmo:lopl1:1,2017-08-05T02:28:00Z,28.8850,-90.0250,10.0,6.1,-9999.0,6.6,'11111222,99999999,11111222' 
LOOP,urn:ioos:station:wmo:lopl1:1,2017-08-05T03:28:00Z,28.8850,-90.0250,10.0,6.4,-9999.0,7.3,'11111222,99999999,11111222' 
LOOP,urn:ioos:station:wmo:lopl1:1,2017-08-05T04:28:00Z,28.8850,-90.0250,10.0,6.7,-9999.0,7.4,'11111222,99999999,11111222' 
LOOP,urn:ioos:station:wmo:lopl1:1,2017-08-05T05:28:00Z,28.8850,-90.0250,10.0,7.2,-9999.0,7.7,'1111122,1111122,1111122' 
LOOP,urn:ioos:station:wmo:lopl1:1,2017-08-05T06:28:00Z,28.8850,-90.0250,10.0,5.7,-9999.0,6.7,'1111122,1111122,1111122' 
LOOP,urn:ioos:station:wmo:lopl1:1,2017-08-05T07:28:00Z,28.8850,-90.0250,10.0,7.7,-9999.0,8.8,'1111122,1111122,1111122' 
LOOP,urn:ioos:station:wmo:lopl1:1,2017-08-05T08:28:00Z,28.8850,-90.0250,10.0,7.7,-9999.0,8.8,'1111122,1111122,1111122' 
LOOP,urn:ioos:station:wmo:lopl1:1,2017-08-05T09:28:00Z,28.8850,-90.0250,10.0,5.7,-9999.0,6.7,'1111122,1111122,1111122' 
LOOP,urn:ioos:station:wmo:lopl1:1,2017-08-05T10:28:00Z,28.8850,-90.0250,10.0,4.1,-9999.0,4.6,'1111122,1111122,1111122' 
LOOP,urn:ioos:station:wmo:lopl1:1,2017-08-05T11:28:00Z,28.8850,-90.0250,10.0,3.1,-9999.0,3.6,'1111122,1111122,1111122' 
LOOP,urn:ioos:station:wmo:lopl1:1,2017-08-05T12:28:00Z,28.8850,-90.0250,10.0,3.1,-9999.0,4.1,'1111122,1111122,1111122' 
LOOP,urn:ioos:station:wmo:lopl1:1,2017-08-05T13:28:00Z,28.8850,-90.0250,10.0,3.6,-9999.0,4.6,'1111122,1111122,1111122' 
LOOP,urn:ioos:station:wmo:lopl1:1,2017-08-05T14:28:00Z,28.8850,-90.0250,10.0,3.1,-9999.0,3.1,'1111122,1111122,1111122' 
LOOP,urn:ioos:station:wmo:lopl1:1,2017-08-05T15:28:00Z,28.8850,-90.0250,10.0,5.1,290.0,7.2,'1111122,1111122,1111122' 
LOOP,urn:ioos:station:wmo:lopl1:1,2017-08-05T16:28:00Z,28.8850,-90.0250,10.0,5.7,330.0,7.2,'1111122,1111122,1111122' 
LOOP,urn:ioos:station:wmo:lopl1:1,2017-08-05T17:28:00Z,28.8850,-90.0250,10.0,3.1,-9999.0,5.1,'1111122,1111122,1111122' 
LOOP,urn:ioos:station:wmo:lopl1:1,2017-08-05T18:28:00Z,28.8850,-90.0250,10.0,3.6,-9999.0,5.1,'1111122,1111122,1111122' 
LOOP,urn:ioos:station:wmo:lopl1:1,2017-08-05T19:28:00Z,28.8850,-90.0250,10.0,5.1,-9999.0,6.2,'1111122,1111122,1111122' 
LOOP,urn:ioos:station:wmo:lopl1:1,2017-08-05T20:28:00Z,28.8850,-90.0250,10.0,3.6,-9999.0,4.1,'1111122,1111122,1111122' 
LOOP,urn:ioos:station:wmo:lopl1:1,2017-08-05T21:28:00Z,28.8850,-90.0250,10.0,4.1,170.0,5.7,'1111122,1111122,1111122' 
LOOP,urn:ioos:station:wmo:lopl1:1,2017-08-05T22:28:00Z,28.8850,-90.0250,10.0,4.7,-9999.0,5.5,'11111222,99999999,11111222' 
LOOP,urn:ioos:station:wmo:lopl1:1,2017-08-05T23:28:00Z,28.8850,-90.0250,10.0,3.4,-9999.0,4.3,'11111222,99999999,11111222' 
LOOP,urn:ioos:station:wmo:lopl1:1,2017-08-06T00:33:00Z,28.8850,-90.0250,10.0,5.7,-9999.0,6.6,'11111222,99999999,11111222' 
LOOP,urn:ioos:station:wmo:lopl1:1,2017-08-06T01:33:00Z,28.8850,-90.0250,10.0,4.5,-9999.0,6.0,'11111222,99999999,11111222' 
LOOP,urn:ioos:station:wmo:lopl1:1,2017-08-06T02:33:00Z,28.8850,-90.0250,10.0,3.9,-9999.0,5.2,'11111222,99999999,11111222' 
LOOP,urn:ioos:station:wmo:lopl1:1,2017-08-06T03:33:00Z,28.8850,-90.0250,10.0,5.7,170.0,6.2,'1111122,1111122,1111122' 
LOOP,urn:ioos:station:wmo:lopl1:1,2017-08-06T04:33:00Z,28.8850,-90.0250,10.0,5.1,160.0,7.2,'1111122,1111122,1111122' 
LOOP,urn:ioos:station:wmo:lopl1:1,2017-08-06T05:33:00Z,28.8850,-90.0250,10.0,4.1,-9999.0,6.2,'1111122,1111122,1111122' 
LOOP,urn:ioos:station:wmo:lopl1:1,2017-08-06T06:33:00Z,28.8850,-90.0250,10.0,5.1,180.0,6.7,'1111122,1111122,1111122' 
LOOP,urn:ioos:station:wmo:lopl1:1,2017-08-06T07:33:00Z,28.8850,-90.0250,10.0,4.6,160.0,7.2,'1111122,1111122,1111122' 
LOOP,urn:ioos:station:wmo:lopl1:1,2017-08-06T08:33:00Z,28.8850,-90.0250,10.0,6.7,-9999.0,8.2,'1111122,1111122,1111122' 
LOOP,urn:ioos:station:wmo:lopl1:1,2017-08-06T09:33:00Z,28.8850,-90.0250,10.0,6.7,-9999.0,9.3,'1111122,1111122,1111122' 
LOOP,urn:ioos:station:wmo:lopl1:1,2017-08-06T10:33:00Z,28.8850,-90.0250,10.0,6.2,-9999.0,7.7,'1111122,1111122,1111122' 
LOOP,urn:ioos:station:wmo:lopl1:1,2017-08-06T11:33:00Z,28.8850,-90.0250,10.0,6.2,-9999.0,9.3,'1111122,1111122,1111122' 
LOOP,urn:ioos:station:wmo:lopl1:1,2017-08-06T12:33:00Z,28.8850,-90.0250,10.0,4.6,-9999.0,6.7,'1111122,1111122,1111122' 
LOOP,urn:ioos:station:wmo:lopl1:1,2017-08-06T13:33:00Z,28.8850,-90.0250,10.0,4.1,-9999.0,6.2,'1111122,1111122,1111122' 
LOOP,urn:ioos:station:wmo:lopl1:1,2017-08-06T14:33:00Z,28.8850,-90.0250,10.0,4.6,-9999.0,6.2,'1111122,1111122,1111122' 
LOOP,urn:ioos:station:wmo:lopl1:1,2017-08-06T15:33:00Z,28.8850,-90.0250,10.0,4.1,-9999.0,5.1,'1111122,1111122,1111122' 
LOOP,urn:ioos:station:wmo:lopl1:1,2017-08-06T16:33:00Z,28.8850,-90.0250,10.0,4.6,-9999.0,5.7,'1111122,1111122,1111122' 
LOOP,urn:ioos:station:wmo:lopl1:1,2017-08-06T17:33:00Z,28.8850,-90.0250,10.0,4.6,-9999.0,5.7,'1111122,1111122,1111122' 
LOOP,urn:ioos:station:wmo:lopl1:1,2017-08-06T18:33:00Z,28.8850,-90.0250,10.0,4.6,-9999.0,5.7,'1111122,1111122,1111122' 
LOOP,urn:ioos:station:wmo:lopl1:1,2017-08-06T19:33:00Z,28.8850,-90.0250,10.0,4.1,-9999.0,5.7,'1111122,1111122,1111122' 
LOOP,urn:ioos:station:wmo:lopl1:1,2017-08-06T20:33:00Z,28.8850,-90.0250,10.0,3.1,160.0,3.6,'1111122,1111122,1111122' 
LOOP,urn:ioos:station:wmo:lopl1:1,2017-08-06T21:33:00Z,28.8850,-90.0250,10.0,3.1,-9999.0,4.6,'1111122,1111122,1111122' 
LOOP,urn:ioos:station:wmo:lopl1:1,2017-08-06T22:33:00Z,28.8850,-90.0250,10.0,3.6,-9999.0,5.1,'1111122,1111122,1111122' 
LOOP,urn:ioos:station:wmo:lopl1:1,2017-08-06T23:33:00Z,28.8850,-90.0250,10.0,3.1,170.0,4.1,'1111122,1111122,1111122' 
LOOP,urn:ioos:station:wmo:lopl1:1,2017-08-07T00:33:00Z,28.8850,-90.0250,10.0,2.6,-9999.0,4.1,'1111122,1111122,1111122' 
LOOP,urn:ioos:station:wmo:lopl1:1,2017-08-07T01:33:00Z,28.8850,-90.0250,10.0,3.1,-9999.0,4.6,'1111122,1111122,1111122' 
LOOP,urn:ioos:station:wmo:lopl1:1,2017-08-07T02:33:00Z,28.8850,-90.0250,10.0,5.1,160.0,5.1,'1111122,1111122,1111122' 
LOOP,urn:ioos:station:wmo:lopl1:1,2017-08-07T03:33:00Z,28.8850,-90.0250,10.0,6.2,170.0,7.2,'1111122,1111122,1111122' 
LOOP,urn:ioos:station:wmo:lopl1:1,2017-08-07T04:38:00Z,28.8850,-90.0250,10.0,7.2,170.0,8.2,'1111122,1111122,1111122' 
LOOP,urn:ioos:station:wmo:lopl1:1,2017-08-07T05:38:00Z,28.8850,-90.0250,10.0,4.6,-9999.0,6.7,'1111122,1111122,1111122' 
LOOP,urn:ioos:station:wmo:lopl1:1,2017-08-07T06:38:00Z,28.8850,-90.0250,10.0,5.7,170.0,8.8,'1111122,1111122,1111122' 
LOOP,urn:ioos:station:wmo:lopl1:1,2017-08-07T07:38:00Z,28.8850,-90.0250,10.0,4.6,-9999.0,6.2,'1111122,1111122,1111122' 
LOOP,urn:ioos:station:wmo:lopl1:1,2017-08-07T08:38:00Z,28.8850,-90.0250,10.0,4.1,-9999.0,5.7,'1111122,1111122,1111122' 
LOOP,urn:ioos:station:wmo:lopl1:1,2017-08-07T09:38:00Z,28.8850,-90.0250,10.0,3.6,-9999.0,4.6,'1111122,1111122,1111122' 
LOOP,urn:ioos:station:wmo:lopl1:1,2017-08-07T10:38:00Z,28.8850,-90.0250,10.0,3.1,-9999.0,3.6,'1111122,1111122,1111122' 
LOOP,urn:ioos:station:wmo:lopl1:1,2017-08-07T11:38:00Z,28.8850,-90.0250,10.0,2.6,-9999.0,3.6,'1111122,1111122,1111122' 
LOOP,urn:ioos:station:wmo:lopl1:1,2017-08-07T12:38:00Z,28.8850,-90.0250,10.0,2.6,-9999.0,4.1,'1111122,1111122,1111122' 
LOOP,urn:ioos:station:wmo:lopl1:1,2017-08-07T13:38:00Z,28.8850,-90.0250,10.0,2.6,-9999.0,3.6,'1111122,1111122,1111122' 
LOOP,urn:ioos:station:wmo:lopl1:1,2017-08-07T14:38:00Z,28.8850,-90.0250,10.0,2.1,-9999.0,3.6,'1111122,1111122,1111122' 
LOOP,urn:ioos:station:wmo:lopl1:1,2017-08-07T15:38:00Z,28.8850,-90.0250,10.0,2.1,-9999.0,3.1,'1111122,1111122,1111122' 
LOOP,urn:ioos:station:wmo:lopl1:1,2017-08-07T16:38:00Z,28.8850,-90.0250,10.0,3.6,180.0,5.1,'1111122,1111122,1111122' 
LOOP,urn:ioos:station:wmo:lopl1:1,2017-08-07T17:38:00Z,28.8850,-90.0250,10.0,4.6,160.0,5.7,'1111122,1111122,1111122' 
LOOP,urn:ioos:station:wmo:lopl1:1,2017-08-07T18:38:00Z,28.8850,-90.0250,10.0,3.6,-9999.0,6.2,'1111122,1111122,1111122' 
LOOP,urn:ioos:station:wmo:lopl1:1,2017-08-07T19:38:00Z,28.8850,-90.0250,10.0,3.6,160.0,5.7,'1111122,1111122,1111122' 
LOOP,urn:ioos:station:wmo:lopl1:1,2017-08-07T20:38:00Z,28.8850,-90.0250,10.0,3.1,180.0,4.1,'1111122,1111122,1111122' 
LOOP,urn:ioos:station:wmo:lopl1:1,2017-08-07T21:38:00Z,28.8850,-90.0250,10.0,4.1,170.0,5.7,'1111122,1111122,1111122' 
LOOP,urn:ioos:station:wmo:lopl1:1,2017-08-07T22:38:00Z,28.8850,-90.0250,10.0,4.1,-9999.0,5.1,'1111122,1111122,1111122' 
LOOP,urn:ioos:station:wmo:lopl1:1,2017-08-07T23:38:00Z,28.8850,-90.0250,10.0,3.1,-9999.0,4.1,'1111122,1111122,1111122' 
LOOP,urn:ioos:station:wmo:lopl1:1,2017-08-08T00:38:00Z,28.8850,-90.0250,10.0,3.1,-9999.0,4.1,'1111122,1111122,1111122' 
LOOP,urn:ioos:station:wmo:lopl1:1,2017-08-08T01:38:00Z,28.8850,-90.0250,10.0,3.1,160.0,3.6,'1111122,1111122,1111122' 
LOOP,urn:ioos:station:wmo:lopl1:1,2017-08-08T02:38:00Z,28.8850,-90.0250,10.0,3.6,150.0,3.6,'1111122,1111122,1111122' 
LOOP,urn:ioos:station:wmo:lopl1:1,2017-08-08T03:38:00Z,28.8850,-90.0250,10.0,4.6,150.0,5.1,'1111122,1111122,1111122' 
LOOP,urn:ioos:station:wmo:lopl1:1,2017-08-08T04:38:00Z,28.8850,-90.0250,10.0,4.6,150.0,5.7,'1111122,1111122,1111122' 
LOOP,urn:ioos:station:wmo:lopl1:1,2017-08-08T05:39:00Z,28.8850,-90.0250,10.0,5.1,150.0,5.7,'1111122,1111122,1111122' 
LOOP,urn:ioos:station:wmo:lopl1:1,2017-08-08T06:39:00Z,28.8850,-90.0250,10.0,6.2,170.0,6.7,'1111122,1111122,1111122' 
LOOP,urn:ioos:station:wmo:lopl1:1,2017-08-08T07:39:00Z,28.8850,-90.0250,10.0,6.2,160.0,7.2,'1111122,1111122,1111122' 
LOOP,urn:ioos:station:wmo:lopl1:1,2017-08-08T08:44:00Z,28.8850,-90.0250,10.0,4.5,166.0,6.4,'11111222,11111222,11111222' 
LOOP,urn:ioos:station:wmo:lopl1:1,2017-08-08T09:44:00Z,28.8850,-90.0250,10.0,4.6,160.0,5.1,'1111122,1111122,1111122' 
LOOP,urn:ioos:station:wmo:lopl1:1,2017-08-08T10:44:00Z,28.8850,-90.0250,10.0,4.1,160.0,5.1,'1111122,1111122,1111122' 
LOOP,urn:ioos:station:wmo:lopl1:1,2017-08-08T11:44:00Z,28.8850,-90.0250,10.0,4.1,160.0,4.6,'1111122,1111122,1111122' 
LOOP,urn:ioos:station:wmo:lopl1:1,2017-08-08T12:44:00Z,28.8850,-90.0250,10.0,3.1,170.0,3.6,'1111122,1111122,1111122' 
LOOP,urn:ioos:station:wmo:lopl1:1,2017-08-08T13:44:00Z,28.8850,-90.0250,10.0,3.1,150.0,3.1,'1111122,1111122,1111122' 
LOOP,urn:ioos:station:wmo:lopl1:1,2017-08-08T14:44:00Z,28.8850,-90.0250,10.0,2.6,160.0,3.1,'1111122,1111122,1111122' 
LOOP,urn:ioos:station:wmo:lopl1:1,2017-08-08T15:44:00Z,28.8850,-90.0250,10.0,2.6,160.0,3.1,'1111122,1111122,1111122' 
LOOP,urn:ioos:station:wmo:lopl1:1,2017-08-08T16:44:00Z,28.8850,-90.0250,10.0,4.1,280.0,6.2,'1111122,1111122,1111122' 
LOOP,urn:ioos:station:wmo:lopl1:1,2017-08-08T17:44:00Z,28.8850,-90.0250,10.0,0.0,-9999.0,2.6,'1114422,1111122,1111122' 
LOOP,urn:ioos:station:wmo:lopl1:1,2017-08-08T18:44:00Z,28.8850,-90.0250,10.0,0.5,121.0,1.0,'11111222,11111222,11111222' 
LOOP,urn:ioos:station:wmo:lopl1:1,2017-08-08T19:44:00Z,28.8850,-90.0250,10.0,2.6,120.0,3.1,'1111122,1111122,1111122' 
LOOP,urn:ioos:station:wmo:lopl1:1,2017-08-08T20:44:00Z,28.8850,-90.0250,10.0,3.1,130.0,3.6,'1111122,1111122,1111122' 
LOOP,urn:ioos:station:wmo:lopl1:1,2017-08-08T21:44:00Z,28.8850,-90.0250,10.0,3.2,154.0,3.9,'11111222,11111222,11111222' 
LOOP,urn:ioos:station:wmo:lopl1:1,2017-08-08T22:44:00Z,28.8850,-90.0250,10.0,3.1,130.0,4.1,'1111122,1111122,1111122' 
LOOP,urn:ioos:station:wmo:lopl1:1,2017-08-08T23:44:00Z,28.8850,-90.0250,10.0,3.6,150.0,4.6,'1111122,1111122,1111122' 
LOOP,urn:ioos:station:wmo:lopl1:1,2017-08-09T00:44:00Z,28.8850,-90.0250,10.0,4.9,149.0,5.6,'11111222,11111222,11111222' 
LOOP,urn:ioos:station:wmo:lopl1:1,2017-08-09T01:44:00Z,28.8850,-90.0250,10.0,5.7,140.0,6.7,'1111122,1111122,1111122' 
LOOP,urn:ioos:station:wmo:lopl1:1,2017-08-09T02:44:00Z,28.8850,-90.0250,10.0,5.1,140.0,5.7,'1111122,1111122,1111122' 
LOOP,urn:ioos:station:wmo:lopl1:1,2017-08-09T03:44:00Z,28.8850,-90.0250,10.0,5.7,160.0,6.2,'1111122,1111122,1111122' 
LOOP,urn:ioos:station:wmo:lopl1:1,2017-08-09T04:44:00Z,28.8850,-90.0250,10.0,6.7,150.0,7.2,'1111122,1111122,1111122' 
LOOP,urn:ioos:station:wmo:lopl1:1,2017-08-09T05:44:00Z,28.8850,-90.0250,10.0,6.7,150.0,7.7,'1111122,1111122,1111122' 
LOOP,urn:ioos:station:wmo:lopl1:1,2017-08-09T06:44:00Z,28.8850,-90.0250,10.0,5.7,160.0,6.2,'1111122,1111122,1111122' 